Location: Church of God
(46.7283°N, 116.9983°W)
Time: 22:34:50
(UTC+00:00)

Daily predictions for brighter satellites

Satellite Brightness Start Highest point End
(mag) Time Altitude Azimuth Time Altitude Azimuth Time Altitude Azimuth
USA 59 Rocket 2.9 12:10:59 11° SSE 12:10:59 11° SSE 12:11:10 10° SSE
Cosmos 2333 Rocket 2.8 12:07:27 52° ENE 12:07:27 52° ENE 12:12:56 10° SE
Cosmos 2219 Rocket 4.0 12:06:19 22° NNE 12:08:09 26° NE 12:12:47 10° ESE
Cosmos 2322 Rocket 2.9 12:18:09 45° NNE 12:19:05 49° ENE 12:24:34 10° SE
Cosmos 1428 Rocket 4.5 12:16:36 10° S 12:22:49 81° E 12:29:09 10° N
NOSS 3-1 (C) 4.0 12:23:49 63° WSW 12:23:50 63° WSW 12:32:37 10° SSE
Nadezhda 4 Rocket 4.1 12:27:44 60° N 12:27:44 60° N 12:32:48 10° N
Cosmos 2195 Rocket 4.4 12:34:48 10° S 12:41:06 88° E 12:47:28 10° N
Cosmos-2242 3.5 12:42:55 55° ENE 12:42:56 55° ENE 12:47:02 10° SSE
ATLAS 3B R/B 4.2 12:40:05 21° NNW 12:44:16 34° NNE 12:51:05 10° E
Helios 1A Rocket 4.2 12:43:32 10° SE 12:46:26 31° ENE 12:46:26 31° ENE
COSMO-SKYMED 1 3.4 12:43:41 10° SE 12:47:36 44° ENE 12:48:59 32° NNE
SL-16 R/B 2.2 12:49:41 61° SW 12:49:41 61° SW 12:54:55 10° S
Cosmos 2082 Rocket 3.7 12:52:33 21° N 12:52:33 21° N 12:54:50 10° N
IRS-1D 3.7 12:47:19 10° NNE 12:52:21 70° ESE 12:57:28 10° S
SeaSat 1 4.2 12:47:58 10° NNE 12:49:38 19° N 12:49:38 19° N
Celestis-02/Orion 38 4.4 12:47:49 10° NNE 12:52:55 84° WNW 12:54:15 51° SW
Meteor 2-2 Rocket 4.3 12:49:21 20° N 12:53:29 79° ENE 12:59:19 10° SSE
COSMOS 2406 3.7 12:55:07 41° NNW 12:55:07 41° NNW 12:59:24 10° NNE
Meteor 2-3 Rocket 3.6 12:53:47 10° SSW 12:59:26 63° WNW 13:05:05 10° N
Meteor 1-26 Rocket 4.1 13:01:49 23° NNW 13:05:25 82° W 13:11:10 10° S
Cosmos 1626 Rocket 4.3 13:02:20 10° S 13:06:36 52° E 13:10:53 10° NNE
SL-4 R/B 2.3 13:08:11 46° SE 13:08:11 46° SE 13:10:32 10° ESE
Cosmos 2278 3.9 13:14:19 43° W 13:14:56 45° WSW 13:20:16 10° S
Okean 1 3.4 13:18:54 47° SSW 13:18:54 47° SSW 13:21:37 10° S
ATLAS 2AS CENTAUR R/B 3.4 13:12:02 10° SSW 13:18:53 56° ESE 13:25:35 10° NE
Cosmos 1814 Rocket 3.9 13:16:07 10° SSW 13:21:21 81° WNW 13:26:42 10° NNE
Cosmos 1627 Rocket 4.4 13:17:26 10° SSW 13:23:25 57° WNW 13:29:30 10° N
Cosmos 158 Rocket 3.9 13:26:20 10° SSW 13:31:39 79° WNW 13:36:53 10° NNE
IRIDIUM 104 4.4 13:27:53 10° S 13:33:06 83° E 13:38:21 10° N
Cosmos 1743 2.7 13:30:56 10° S 13:34:07 63° E 13:37:21 10° NNE
NOSS 3-1 (A) 4.3 13:30:10 27° WNW 13:34:17 50° WSW 13:42:52 10° SSE
Cosmos 2151 3.8 13:31:01 10° S 13:34:57 51° E 13:38:58 10° NNE
Cosmos 2360 Rocket 2.3 13:34:28 27° NW 13:37:17 51° WSW 13:42:41 10° S
Cosmos 192 4.3 13:34:37 16° NNW 13:38:38 83° ENE 13:43:32 10° SSE
BREEZE-M DEB (TANK) 2.9 13:38:29 43° NW 13:39:05 53° N 13:43:59 10° E
BREEZE-M DEB (TANK) 2.8 13:38:48 35° WSW 13:39:58 59° SSW 13:46:37 10° ESE
Cosmos 1812 Rocket 3.9 13:36:21 10° N 13:40:40 66° E 13:44:59 10° SSE
Cosmos 2026 Rocket 4.3 13:35:36 10° SW 13:41:15 41° WNW 13:47:01 10° N
IRIDIUM 114 4.2 13:37:01 10° S 13:42:14 82° W 13:47:30 10° N
USA 234 4.1 13:36:38 10° ENE 13:42:29 36° N 13:46:16 20° NW
Cosmos 1602 Rocket 3.8 13:41:36 10° S 13:46:01 73° E 13:50:26 10° NNE
Cosmos 2285 Rocket 4.1 13:40:51 14° NNW 13:46:15 59° WSW 13:52:31 10° S
Orbus 7S? 2.3 13:46:07 48° WNW 13:46:44 85° SSW 13:49:38 10° SE
Cosmos 2237 Rocket 4.0 13:46:22 10° N 13:50:59 25° NE 13:55:34 10° ESE
Cosmos 2333 Rocket 3.1 13:49:31 23° WNW 13:51:19 28° WSW 13:56:04 10° SSW
IRIDIUM 103 4.2 13:46:13 10° SSW 13:51:24 69° W 13:56:38 10° N
Cosmos 1833 4.1 13:45:52 10° SW 13:51:29 66° WNW 13:57:12 10° NNE
Cosmos 2219 Rocket 2.2 13:48:03 16° NW 13:52:33 64° WSW 13:58:05 10° SSE
Cosmos 2221 2.3 13:48:40 10° N 13:52:49 89° W 13:56:57 10° S
Okean 1-7 Rocket 4.2 13:48:47 10° S 13:53:11 59° E 13:57:35 10° NNE
Cosmos 2058 Rocket 4.1 13:54:38 24° W 13:55:02 24° W 13:58:33 10° SW
Cosmos 1707 2.5 13:53:34 10° N 13:56:42 64° E 13:59:47 10° SSE
ISS -1.3 13:56:55 10° SSW 13:59:40 23° SE 14:02:26 10° E
CZ-4 R/B 4.4 13:55:38 10° N 13:59:45 33° WNW 14:03:51 10° SW
BREEZE-M DEB (TANK) 1.6 14:00:08 42° WSW 14:00:33 59° SSW 14:02:59 10° ESE
USA 229 4.3 13:54:12 12° NW 14:01:04 67° NE 14:09:10 10° SE
USA 229 DEB 4.3 13:54:17 12° NW 14:01:09 67° NE 14:09:15 10° SE
Cosmos 2322 Rocket 3.1 13:59:59 19° WNW 14:02:51 29° WSW 14:07:38 10° SSW
Thor Agena Rocket 4.0 13:58:06 10° NNE 14:03:08 62° ESE 14:08:05 10° S
Cosmos 405 Rocket 3.1 14:00:18 10° SW 14:03:11 28° WNW 14:06:05 10° N
SL-08 ROCKET BODY 4.4 14:00:39 10° SSW 14:06:22 57° WNW 14:12:09 10° N
BREEZE M DEB (TANK) 1.9 14:09:02 14° WSW 14:11:00 81° SSE 14:15:49 10° ENE
Cosmos 1553 Rocket 4.4 14:05:07 10° NNW 14:11:09 44° W 14:17:09 10° SSW
S3M 4.0 14:05:21 10° N 14:11:34 87° W 14:17:40 10° S
Cosmos 1484 Rocket 2.8 14:10:23 10° N 14:13:35 39° WNW 14:16:45 10° SW
MOS 1 Rocket 4.4 14:10:28 10° NNE 14:15:44 55° E 14:20:50 10° S
Cosmos 1125 Rocket 3.6 14:11:53 10° NNW 14:17:02 57° WSW 14:22:06 10° S
IGS 5A 3.5 14:13:44 10° N 14:17:37 49° WNW 14:21:28 10° SSW
Cosmos 2322 3.8 14:12:33 10° NNW 14:18:15 87° ENE 14:23:55 10° SSE
Cosmos 1825 Rocket 3.7 14:14:16 10° S 14:18:40 79° E 14:23:06 10° NNE
Helios 1A Rocket 4.0 14:16:53 10° SW 14:19:09 17° W 14:19:58 16° WNW
Cosmos 1758 Rocket 4.3 14:19:13 10° SW 14:23:07 30° WNW 14:27:00 10° N
COSMO-SKYMED 1 3.9 14:20:16 10° SW 14:23:07 18° W 14:25:18 13° NW
Cosmos 2208 Rocket 4.4 14:18:00 10° S 14:23:11 69° ESE 14:28:21 10° NNE
SMAP 3.0 14:20:33 10° NNE 14:25:14 84° WNW 14:29:54 10° SSW
Meteor 1-19 Rocket 4.4 14:20:24 10° NNW 14:26:09 61° W 14:32:00 10° S
Meteor 1-10 Rocket 4.4 14:20:24 10° NNW 14:26:17 66° W 14:32:08 10° S
Cosmos 1076 Rocket 4.1 14:22:12 10° S 14:26:20 60° E 14:30:32 10° NNE
Cosmos 2298 Rocket 4.4 14:22:51 10° NNW 14:28:09 67° ENE 14:33:25 10° SSE
Cosmos 1437 Rocket 3.0 14:25:43 10° NNW 14:28:57 37° W 14:32:11 10° SSW
Cosmos 883 Rocket 4.5 14:22:44 10° N 14:29:04 81° W 14:35:16 10° S
Landsat 7 3.8 14:24:43 10° NNE 14:29:24 88° ESE 14:34:04 10° SSW
USA 290 3.3 14:29:00 10° S 14:32:06 50° ESE 14:35:15 10° NNE
ATLAS 3B R/B 3.1 14:28:08 10° NW 14:36:03 89° ENE 14:43:30 10° SE
Cosmos 44 3.2 14:31:45 10° SW 14:36:20 84° NW 14:41:17 10° NE
ARIANE 6 FM1 Upper Stage 3.4 14:33:09 10° SSW 14:37:07 56° SE 14:41:01 10° NE
Cosmos 2266 Rocket 4.2 14:34:32 10° SSW 14:40:44 53° WNW 14:46:53 10° N
SL-08 R/B 3.8 14:38:52 10° SSE 14:43:25 63° ENE 14:48:05 10° N
COSMOS 2428 2.8 14:37:56 10° NNW 14:43:38 71° WSW 14:49:17 10° SSE
CORIOLIS 4.2 14:38:50 10° N 14:44:10 63° WNW 14:49:30 10° SSW
SL-4 R/B 3.7 14:42:56 10° WSW 14:44:24 13° SW 14:45:53 10° SSW
Cosmos 1842 3.5 14:44:52 10° NNW 14:47:57 36° W 14:51:00 10° SSW
